Location: Artiguedieu
(43.5000°N, 0.5454°E)
Time: 10:53:51
(UTC+00:00)

Cosmos 1844 Rocket - Pass Details

Date: 06 December 2020
Orbit: 824 x 845 km, 71.0° (Epoch: 27 January)

Event Time Altitude Azimuth Distance (km) Brightness Sun altitude
Exits shadow 05:44:37 18° 322° (NW) 1,951 4.1 -16.1°
Drops below altitude 10° 05:47:53 10° 357° (N) 2,474 4.9 -15.5°
Sets 05:51:09 0° 15° (NNE) 3,414 5.8 -14.9°
